User: anonymous   Login
Location: Theydon Bois
(51.6750°N, 0.1050°E)
Time: 14:52:19
(UTC+01:00)
Language:

Cosmos 2322 Rocket - Orbit

View from above orbital plane
View from above orbital plane
View from above satellite
View from above satellite

Ground track
Ground track

The orbit data is extracted from the following two-line orbital elements,

1 23705U 95058B   18197.67297247 -.00000179  00000-0 -67622-4 0  9990
2 23705  71.0229 281.3715 0010691  49.1192 311.0856 14.15116750172993
Epoch (UTC): 16 July 2018 16:09:04
Eccentricity: 0.0010691
inclination: 71.0229°
perigee height: 834 km
apogee height: 849 km
right ascension of ascending node: 281.3715°
argument of perigee: 49.1192°
revolutions per day: 14.15116750
mean anomaly at epoch: 311.0856°
orbit number at epoch: 17299

The dashed part of the orbit path shows where the satellite is in the earth's shadow,  

DLR